Charlevoix, MI

12:42 AM EDT on July 27, 2017 (GMT -0400)
Charlevoix Municipal

Weather History for KCVX - January, 2014

Change the Weather History Date:

Monday, January 20, 2014

  Actual Average Record
Temperature  
Mean Temperature 12 °F -  
Max Temperature 17 °F 27 °F 36 °F (2017)
Min Temperature 7 °F 16 °F -7 °F (2009)
Degree Days  
Heating Degree Days 53    
Moisture  
Dew Point 3 °F    
Average Humidity 72    
Maximum Humidity 83    
Minimum Humidity 56    
Precipitation  
Precipitation 0.00 in - - ()
Sea Level Pressure  
Sea Level Pressure 29.91 in    
Wind  
Wind Speed 12 mph (North)    
Max Wind Speed 17 mph    
Max Gust Speed 24 mph    
Visibility 8 miles    
Events Snow    
Averages and records for this station are not official NWS values.
T = Trace of Precipitation, MM = Missing Value Source: NWS Daily Summary

Daily Weather History Graph

Daily Weather History Graph

Search for Another Location

Airport or City:

Trip Planner

Search our weather history database for the weather conditions in past years. The results will help you decide how hot, cold, wet, or windy it might be!

Date:

Astronomy

Jan. 20, 2014 Rise Set
Actual Time 8:13 AM EST 5:31 PM EST
Civil Twilight 7:40 AM EST 6:03 PM EST
Nautical Twilight 7:04 AM EST 6:40 PM EST
Astronomical Twilight 6:29 AM EST 7:15 PM EST
Moon 10:20 PM EST (1/20) 9:58 AM EST (1/20)
Length of Visible Light 10h 23m
Length of Day
9h 18m
Waning Gibbous, 83% of the Moon is Illuminated
Jan 20
Waning Gibbous
Jan 24
Last Quarter
Jan 30
New
Feb 6
First Quarter
Feb 14
Full

Hourly Weather History & Observations

Time (EST) Temp. Windchill Dew Point Humidity Pressure Visibility Wind Dir Wind Speed Gust Speed Precip Events Conditions
12:14 AM 17.6 °F 4.3 °F 11.1 °F 76% 29.61 in 4.0 mi North 12.7 mph 19.6 mph N/A Snow Light Snow
12:35 AM 17.2 °F 5.2 °F 10.4 °F 75% 29.61 in 5.0 mi North 10.4 mph - N/A Snow Light Snow
12:55 AM 17.1 °F 3.6 °F 9.3 °F 72% 29.61 in 10.0 mi North 12.7 mph - N/A   Overcast
1:14 AM 17.1 °F 2.5 °F 9.3 °F 72% 29.62 in 10.0 mi North 15.0 mph 19.6 mph N/A   Overcast
1:35 AM 16.7 °F 2.0 °F 9.7 °F 74% 29.62 in 10.0 mi NNW 15.0 mph 18.4 mph N/A   Overcast
1:55 AM 16.7 °F 2.0 °F 9.1 °F 72% 29.62 in 10.0 mi North 15.0 mph 19.6 mph N/A Snow Light Snow
2:14 AM 16.7 °F 4.5 °F 8.8 °F 71% 29.63 in 10.0 mi NNW 10.4 mph - N/A   Overcast
2:35 AM 16.7 °F 2.6 °F 8.4 °F 70% 29.64 in 10.0 mi North 13.8 mph 18.4 mph N/A   Overcast
2:55 AM 16.5 °F 3.0 °F 8.2 °F 70% 29.65 in 10.0 mi North 12.7 mph 21.9 mph N/A   Overcast
3:14 AM 15.8 °F 0.3 °F 8.2 °F 72% 29.67 in 10.0 mi North 16.1 mph 19.6 mph N/A   Overcast
3:35 AM 15.4 °F 3.0 °F 7.5 °F 71% 29.68 in 10.0 mi North 10.4 mph - N/A   Overcast
3:55 AM 15.3 °F 1.4 °F 7.3 °F 71% 29.69 in 10.0 mi NNW 12.7 mph 18.4 mph N/A   Overcast
4:14 AM 13.8 °F -1.1 °F 9.5 °F 83% 29.70 in 1.2 mi NNE 13.8 mph - N/A Snow Light Snow
4:35 AM 13.8 °F -1.1 °F 9.5 °F 83% 29.71 in 3.0 mi North 13.8 mph 18.4 mph N/A Snow Light Snow
4:55 AM 14.5 °F -0.2 °F 9.0 °F 79% 29.73 in 7.0 mi NNW 13.8 mph - N/A Snow Light Snow
5:14 AM 14.0 °F -0.8 °F 7.7 °F 76% 29.76 in 7.0 mi NNW 13.8 mph 18.4 mph N/A Snow Light Snow
5:35 AM 13.8 °F -1.1 °F 7.3 °F 75% 29.77 in 5.0 mi NW 13.8 mph 18.4 mph N/A Snow Light Snow
5:54 AM 13.1 °F -0.7 °F 6.8 °F 76% 29.77 in 10.0 mi North 11.5 mph - N/A   Overcast
6:15 AM 13.1 °F -0.7 °F 7.0 °F 77% 29.78 in 10.0 mi North 11.5 mph - N/A   Overcast
6:35 AM 11.8 °F -0.7 °F 6.8 °F 80% 29.79 in 5.0 mi NNE 9.2 mph - N/A Snow Light Snow
6:54 AM 11.8 °F -0.7 °F 6.8 °F 80% 29.79 in 7.0 mi NNE 9.2 mph - N/A Snow Light Snow
7:15 AM 11.3 °F -0.4 °F 5.9 °F 79% 29.79 in 7.0 mi NNE 8.1 mph - N/A Snow Light Snow
7:35 AM 10.4 °F -2.4 °F 5.2 °F 79% 29.80 in 4.0 mi ENE 9.2 mph - N/A Snow Light Snow
7:54 AM 10.0 °F -3.7 °F 4.8 °F 79% 29.81 in 4.0 mi NE 10.4 mph - N/A Snow Light Snow
8:15 AM 9.5 °F -5.9 °F 4.5 °F 80% 29.81 in 2.5 mi ENE 12.7 mph - N/A Snow Light Snow
8:35 AM 9.3 °F -4.6 °F 3.9 °F 79% 29.82 in 2.5 mi NE 10.4 mph - N/A Snow Light Snow
8:54 AM 9.1 °F -5.6 °F 3.4 °F 77% 29.84 in 3.0 mi NE 11.5 mph 17.3 mph N/A   Haze
9:15 AM 9.0 °F -7.3 °F 2.7 °F 76% 29.84 in 10.0 mi NE 13.8 mph - N/A   Overcast
9:35 AM 8.6 °F -5.5 °F 2.1 °F 75% 29.87 in 10.0 mi NE 10.4 mph 17.3 mph N/A   Mostly Cloudy
9:54 AM 8.2 °F -6.8 °F 1.4 °F 74% 29.89 in 10.0 mi NE 11.5 mph - N/A   Mostly Cloudy
10:15 AM 8.4 °F -7.9 °F 1.4 °F 73% 29.90 in 10.0 mi NE 13.8 mph 18.4 mph N/A   Mostly Cloudy
10:34 AM 8.4 °F -7.9 °F 1.4 °F 73% 29.91 in 10.0 mi NNE 13.8 mph 19.6 mph N/A   Mostly Cloudy
10:55 AM 7.7 °F -6.6 °F 1.2 °F 75% 29.93 in 10.0 mi North 10.4 mph - N/A   Overcast
11:15 AM 8.8 °F -5.3 °F 1.4 °F 72% 29.94 in 10.0 mi NNE 10.4 mph 17.3 mph N/A   Mostly Cloudy
11:34 AM 8.2 °F -6.0 °F 0.3 °F 70% 29.95 in 10.0 mi NNE 10.4 mph - N/A   Mostly Cloudy
11:55 AM 8.2 °F -6.0 °F 0.5 °F 71% 29.96 in 10.0 mi NNE 10.4 mph - N/A   Scattered Clouds
12:14 PM 7.7 °F -8.2 °F 0.5 °F 72% 29.96 in 10.0 mi NNE 12.7 mph 16.1 mph N/A   Mostly Cloudy
12:35 PM 7.5 °F -6.9 °F -0.2 °F 71% 29.97 in 10.0 mi North 10.4 mph 16.1 mph N/A   Overcast
12:55 PM 8.2 °F -5.1 °F -0.0 °F 69% 29.97 in 10.0 mi North 9.2 mph - N/A   Overcast
1:14 PM 7.9 °F -6.4 °F -0.0 °F 70% 29.97 in 10.0 mi North 10.4 mph 16.1 mph N/A   Scattered Clouds
1:35 PM 7.7 °F -3.7 °F -1.3 °F 67% 29.97 in 10.0 mi North 6.9 mph - N/A   Scattered Clouds
1:55 PM 8.2 °F -5.1 °F -1.5 °F 65% 29.97 in 10.0 mi North 9.2 mph - N/A   Clear
2:14 PM 8.4 °F -3.9 °F -1.1 °F 65% 29.98 in 10.0 mi North 8.1 mph - N/A   Scattered Clouds
2:35 PM 7.9 °F -2.2 °F -0.9 °F 67% 29.99 in 10.0 mi North 5.8 mph - N/A   Scattered Clouds
2:55 PM 8.4 °F -2.8 °F 0.1 °F 69% 29.99 in 10.0 mi North 6.9 mph - N/A   Mostly Cloudy
3:14 PM 7.7 °F -4.8 °F -0.2 °F 70% 30.00 in 10.0 mi NNE 8.1 mph - N/A   Mostly Cloudy
3:35 PM 7.7 °F 1.0 °F -0.0 °F 71% 30.01 in 10.0 mi North 3.5 mph - N/A   Mostly Cloudy
3:55 PM 7.7 °F 1.0 °F -0.2 °F 70% 30.02 in 10.0 mi ENE 3.5 mph - N/A   Mostly Cloudy
4:14 PM 8.1 °F -2.0 °F 0.1 °F 70% 30.02 in 10.0 mi NE 5.8 mph - N/A   Mostly Cloudy
4:35 PM 8.4 °F -2.8 °F 1.2 °F 73% 30.04 in 10.0 mi NE 6.9 mph - N/A   Overcast
4:55 PM 8.4 °F -3.9 °F 1.2 °F 73% 30.05 in 10.0 mi NE 8.1 mph - N/A   Overcast
5:14 PM 8.6 °F -1.3 °F 1.8 °F 74% 30.05 in 7.0 mi NNE 5.8 mph - N/A   Overcast
5:35 PM 9.5 °F -5.9 °F 1.2 °F 69% 30.05 in 7.0 mi North 12.7 mph 19.6 mph N/A   Overcast
5:54 PM 10.0 °F -2.9 °F 1.0 °F 67% 30.07 in 10.0 mi North 9.2 mph 19.6 mph N/A   Overcast
6:15 PM 10.4 °F -7.2 °F 1.4 °F 67% 30.08 in 10.0 mi North 17.3 mph 21.9 mph N/A   Overcast
6:35 PM 9.3 °F -5.4 °F 2.7 °F 74% 30.09 in 7.0 mi North 11.5 mph - N/A   Overcast
6:54 PM 9.1 °F -5.6 °F 2.3 °F 74% 30.10 in 3.0 mi North 11.5 mph - N/A Snow Light Snow
7:15 PM 9.5 °F -4.4 °F 0.9 °F 68% 30.11 in 7.0 mi North 10.4 mph - N/A   Overcast
7:34 PM 9.1 °F -4.9 °F 1.4 °F 71% 30.12 in 5.0 mi North 10.4 mph - N/A Snow Light Snow
7:55 PM 9.7 °F -4.2 °F -3.1 °F 56% 30.12 in 10.0 mi NNW 10.4 mph 20.7 mph N/A   Overcast
8:15 PM 9.5 °F -5.2 °F -2.9 °F 57% 30.12 in 10.0 mi NW 11.5 mph 21.9 mph N/A   Overcast
8:34 PM 9.3 °F -8.6 °F -3.6 °F 56% 30.12 in 10.0 mi NNW 17.3 mph 24.2 mph N/A   Mostly Cloudy
8:55 PM 9.3 °F -5.4 °F -2.0 °F 60% 30.12 in 10.0 mi NNW 11.5 mph 18.4 mph N/A   Mostly Cloudy
9:15 PM 9.5 °F -7.8 °F -1.1 °F 62% 30.12 in 10.0 mi NNW 16.1 mph 23.0 mph N/A   Overcast
9:34 PM 9.5 °F -5.9 °F 0.1 °F 66% 30.12 in 5.0 mi NNW 12.7 mph 21.9 mph N/A   Haze
9:55 PM 9.7 °F -5.0 °F 1.4 °F 69% 30.12 in 2.5 mi NNW 11.5 mph 21.9 mph N/A Snow Light Snow
10:15 PM 9.5 °F -7.2 °F 1.0 °F 69% 30.12 in 2.0 mi North 15.0 mph - N/A Snow Light Snow
10:34 PM 9.5 °F -7.2 °F 1.0 °F 69% 30.12 in 2.5 mi NNW 15.0 mph 19.6 mph N/A Snow Light Snow
10:55 PM 9.3 °F -6.8 °F 1.2 °F 70% 30.13 in 1.8 mi North 13.8 mph 19.6 mph N/A Snow Light Snow
11:15 PM 9.3 °F -6.1 °F 2.1 °F 73% 30.14 in 2.0 mi North 12.7 mph 19.6 mph N/A Snow Light Snow
11:34 PM 8.4 °F -9.2 °F 2.1 °F 76% 30.14 in 2.0 mi North 16.1 mph 20.7 mph N/A Snow Light Snow
11:55 PM 7.7 °F -5.8 °F 2.5 °F 79% 30.15 in 1.8 mi NE 9.2 mph 12.7 mph N/A Snow Light Snow